Flight Information

DEPARTURE
AMARILLO, TX
Elevation:
3606
Runways:
13/31 - 7901x150 - CONC-G
4/22 - 13502x200 - CONC-G
ATIS:
118.85
Clearance Delivery:
121.65
Ground:
121.9
Tower:
AMARILLO TOWER 118.3
DESTINATION
,
Elevation:
TPA:
1000 (est.)


5972.2 NM83° True-9° Var73° HDG

Flight Plan:
(click to file on line)

1. Type
2. Aircraft Identification
3. Aircraft Type / Special Equipment
4. True Airspeed
kts
5. Departure Airport
(ICAO code)
6. Arriving Airport
(ICAO code)
7. Cruising Altitude
ft
8. Alternate Airport
(ICAO code)
9. Route of Flight
10. Remarks


00:00:00 Departure ATIS: Destination ATIS:

Clearance Limit:
Route:
Altitude: Expect in minutes
Frequency:
Transponder: (7500 Hijack / 7600 Lost Comms / 7700 Emergency)


KAMA 110353Z 18011KT 10SM CLR 14/M07 A2978 RMK AO2 SLP059 T01391067
Time: 2021-04-11T03:53:00Z
1618116927
Winds: 180 @ 11 kts
Visibility: 10.0 sm
Clouds (AGL): CLR
Temperature: 13.9 C
Dew Point: -6.7 C
Pressure: 29.778543 in Hgbr


Notes:

Data extracted from FAA Digital Chart Supplement. Effective: 0901Z Thursday, Feb 25, 2021 to 0901Z Thursday, APR 22, 2021
Current ATIS data is provided courtisy of PilotEdge.